www.pogodaiklimat.ru

Погода и климат >> Архив погоды >> Россия >> Свердловская область >> Екатеринбург


АРХИВ ПОГОДЫ в Екатеринбурге

Время (UTC), дата Ветер
(напр.,м/с)
 
Видим.   Явления Облачность Т
(С)
Тd
(С)
f
(%)
Тe
(С)
Тes
(С)
Комфортность P
(гПа)
Po
(гПа)
Тmin
(С)
Tmax
(С)
R
(мм)
R24
(мм)
S
(см)
21 12.09 ЮЗ 2 10 км ясно +9.1 +4.2 71 +8 +8 по сезону 1020.9 987.0
00 13.09 Ю 2 10 км ясно +7.8 +3.4 74 +6 +6 по сезону 1019.1 985.1
03 13.09 Ю 2 50 км 10/0
[Cs]
+9.9 +3.5 64 +9 +9 по сезону 1016.5 982.8 +7.6
06 13.09 Ю 2 50 км 10/0
[Ac As]
+13.7 +3.3 49 +13 +15 тепло 1013.6 980.4
09 13.09 ЮЗ 5-11
{11}
50 км 10/0
[Cs]
+20.6 +2.8 31 +21 +24 комфорт 1009.8 977.6
12 13.09 ЮЗ 6-12
{16}
50 км 4/0
[Ci fib]
+21.8 +4.0 31 +22 +23 комфорт 1007.8 975.7
15 13.09 ЮЗ 4-11
{13}
10 км 8/0
[Ac trans Ci fib]
+18.7 +4.6 39 +19 +19 тепло 1005.8 973.4 +22.0
00 14.09 З 4 10 км {ливн. осадки} 10/8 600 м
[Cb calv Ac trans]
+11.0 +7.5 79 +9 +9 тепло 1008.9 975.6
03 14.09 З 5-12
{13}
50 км ясно +12.2 +6.4 68 +10 +10 по сезону 1008.1 975.0 +10.9 0.5
06 14.09 З 10-16
{17}
50 км 4/4 600 м
[Cu med, cong]
+15.4 +4.4 48 +13 +14 тепло 1008.1 975.3
09 14.09 З 8-17
{19}
50 км 8/8 600 м
[Cu med, cong]
+17.5 +3.7 40 +16 +17 тепло 1008.9 976.3
12 14.09 З 5
{17}
50 км 9/9 600 м
[Cu Sc]
+16.3 +3.9 44 +15 +16 тепло 1011.5 978.8
15 14.09 З 4
{14}
10 км 9/9 600 м
[Sc]
+14.3 +5.5 55 +13 +13 тепло 1013.5 980.5 +18.1
18 14.09 З 5-10
{11}
10 км 9/9 600 м
[Sc]
+13.2 +6.0 62 +11 +11 тепло 1015.0 981.8
21 14.09 З 3
{10}
10 км 8/8 600 м
[Sc]
+12.5 +6.3 66 +11 +11 тепло 1015.8 982.5
00 15.09 З 4 10 км 8/8 600 м
[Sc Cs]
+11.4 +6.6 72 +9 +9 тепло 1016.6 983.2
03 15.09 З 4 50 км 9/8 600 м
[Sc Cs]
+11.5 +7.0 74 +9 +9 по сезону 1017.8 984.3 +10.9
06 15.09 З 4
{10}
50 км 9/9 600 м
[Cb cap]
+13.3 +6.4 63 +12 +12 тепло 1018.8 985.5
09 15.09 З 4
{11}
50 км 8/6 600 м
[Sc diur, vesp Ci fib]
+16.7 +5.0 46 +16 +18 тепло 1019.1 986.1
12 15.09 З 4
{12}
50 км 10/5 600 м
[Sc Ac trans Ci fib]
+15.9 +4.3 46 +15 +16 тепло 1019.5 986.4
15 15.09 З 2 10 км 10/3 600 м
[Sc Ac trans Cs]
+13.0 +5.3 59 +12 +12 тепло 1020.9 987.4 +17.6
18 15.09 СЗ 2 10 км 10/0
[Cs]
+11.1 +6.4 73 +10 +10 тепло 1021.9 988.2
21 15.09 З 1 10 км ясно +8.5 +5.8 83 +8 +8 по сезону 1022.6 988.6
00 16.09 штиль 0 10 км ясно +6.9 +5.0 88 +6 +6 по сезону 1023.3 989.0
03 16.09 ЮЗ 1 10 км 4/0
[Cs]
+8.6 +6.3 85 +8 +8 по сезону 1023.9 989.8 +6.5
06 16.09 СЗ 1 50 км 3/3 600 м
[Cu hum]
+14.9 +6.4 57 +16 +20 тепло 1023.4 990.1
09 16.09 ЮЗ 1 50 км 8/6 600 м
[Cu med, cong Ci fib]
+18.1 +5.0 42 +19 +22 тепло 1022.4 989.5
12 16.09 штиль 0 50 км 6/4 600 м
[Cu hum Cs]
+17.7 +3.3 38 +18 +19 тепло 1021.8 988.9
15 16.09 В 2 10 км 6/0
[Cs]
+13.3 +5.7 60 +13 +13 тепло 1022.5 989.0 +18.8
18 16.09 В 1 10 км ясно +10.5 +5.6 72 +10 +10 тепло 1022.7 988.9
21 16.09 ЮВ 2 10 км ясно +9.0 +4.8 75 +7 +7 по сезону 1022.4 988.4
00 17.09 ЮВ 3 10 км 8/0
[Cs]
+7.8 +4.2 78 +5 +5 по сезону 1021.7 987.6
03 17.09 ЮВ 3 20 км 9/8 600 м
[Sc Cs]
+8.5 +4.0 73 +6 +6 по сезону 1020.4 986.4 +7.3
06 17.09 Ю 4 50 км 4/0
[Ac trans Cs]
+15.0 +5.4 53 +14 +17 тепло 1018.5 985.4
09 17.09 ЮВ 4 50 км 4/0
[Ci fib]
+19.1 +5.8 42 +20 +23 тепло 1016.7 984.1
12 17.09 ЮВ 4
{10}
50 км 10/3 600 м
[Sc Ac trans Ci fib]
+19.8 +6.2 41 +21 +21 комфорт 1015.5 983.0
15 17.09 ЮВ 3 10 км 9/0
[Ac trans Ci fib]
+17.3 +6.8 50 +17 +17 тепло 1015.0 982.2 +20.4
18 17.09 ЮВ 3 10 км 8/0
[Cs]
+16.6 +6.6 52 +16 +16 тепло 1013.9 981.1
21 17.09 ЮВ 2 10 км 10/0
[Ac trans Cc]
+15.1 +7.1 59 +15 +15 тепло 1014.2 981.2
00 18.09 В 2 10 км 10/3 600 м
[Sc Ac As]
+13.5 +7.4 67 +13 +13 тепло 1013.5 980.3
03 18.09 штиль 0 50 км 10/6 600 м
[Sc Ac As]
+12.8 +7.8 72 +12 +13 тепло 1014.5 981.2 +12.4
06 18.09 В 1 10 км 10/5 600 м
[Sc Ac und]
+15.7 +7.8 59 +16 +17 тепло 1013.5 980.7
09 18.09 ЮВ 2 10 км 9/5 1000 м
[Sc Ac As]
+16.6 +8.5 59 +17 +18 тепло 1012.5 979.8
12 18.09 ЮВ 3 20 км 10/6 1000 м
[Sc Ac As]
+18.5 +8.7 53 +19 +19 тепло 1010.6 978.2
15 18.09 ЮВ 2 10 км 9/8 1000 м
[Sc Ac trans]
+18.1 +7.4 50 +19 +19 тепло 1010.2 977.7 +19.0
18 18.09 ЮВ 3 10 км 8/8 1000 м
[Sc]
+16.7 +5.6 48 +17 +17 тепло 1008.9 976.3
21 18.09 ЮВ 4 10 км 6/6 1000 м
[Sc]
+16.9 +3.1 40 +16 +16 тепло 1006.7 974.1
00 19.09 ЮВ 2 10 км 6/6 1000 м
[Sc]
+15.1 +2.9 44 +15 +15 тепло 1004.6 971.9
03 19.09 ЮВ 4 20 км 10/8 1000 м
[Sc Ac trans Ci fib]
+13.9 +3.3 49 +13 +13 тепло 1002.5 969.7 +13.7
06 19.09 В 3 50 км 9/6 600 м
[Sc Cs]
+14.7 +4.5 50 +14 +15 тепло 1000.5 967.9
09 19.09 ЮВ 4
{11}
20 км в посл. час ливневой дождь 9/9 600 м
[Cb calv]
+15.5 +4.4 48 +15 +15 тепло 998.1 965.7
12 19.09 ЮВ 4
{13}
20 км {ливн. осадки} 4/3 600 м
[Cb calv Cs]
+17.6 +3.8 40 +17 +18 тепло 997.8 965.6
15 19.09 ЮВ 2 10 км 8/8 600 м
[Cb calv]
+15.1 +4.8 50 +15 +15 тепло 998.0 965.6 +17.6
18 19.09 З 2 10 км 8/8 600 м
[Sc]
+12.5 +8.0 74 +12 +12 тепло 998.9 966.2

 

Местоположение метеостанции Екатеринбург (Свердловская область, Россия): широта 56.83 долгота 60.63 высота над уровнем моря 281 м.

В архиве по умолчанию представлена погода в Екатеринбурге за последнюю неделю. Архивные данные за месяц целиком и за предыдущие месяцы, начиная с января 2011 года, Вы можете получить, выбрав интересующий диапазон дат из раскрывающегося списка и нажав кнопку "Ввод!".


*Определитесь, кто Вы:
робот инопланетянин человек

Внимание! Время в таблицах - всемирное. Для получения местного времени необходимо прибавить поправку, которая в Екатеринбурге равна 5 ч.

Смотрите также архив погоды в соседних городах и на ближайших метеорологических станциях:

Погода в Екатеринбурге (Бот.сад) (Свердловская область, Россия) (5 км)
Погода в Верхнем Дуброво (Свердловская область, Россия) (29 км)
Погода в Сысерти (Свердловская область, Россия) (38 км)
Погода в Ревде (Свердловская область, Россия) (40 км)
Погода в Мариинске (Свердловская область, Россия) (52 км)
Погода в Невьянске (Свердловская область, Россия) (78 км)
Погода в Верхнем Уфалее (Челябинская область, Россия) (86 км)
Погода в Каменск-Уральском (Свердловская область, Россия) (88 км)
Погода в Бисерти (Свердловская область, Россия) (95 км)
Погода в Артемовском (Свердловская область, Россия) (98 км)

Пояснения к столбцам:

Ветер - указаны скорость ветра в м/с - средняя за 10 мин, порывы в срок и между сроками (в фигурных скобках) и направление, откуда дует ветер: С - северный, СВ - северо-восточный, В - восточный, ЮВ - юго-восточный, Ю - южный, ЮЗ - юго-западный, З - западный, СЗ - северо-западный.
Видимость - горизонтальная дальность видимости в метрах или километрах. При видимости от 1 до 10 км при отсутствии осадков обычно наблюдается дымка, при ухудшении видимости до 1 км и менее - туман. В сухую погоду видимость может ухудшаться дымом, пылью или мглою.
Явления - указаны атмосферные явления, наблюдавшиеся в срок или в последний час перед сроком; фигурными скобками обозначены явления, наблюдавшиеся между сроками (за 1-3 часа до срока); квадратными скобками обозначены град или гололедные отложения с указанием их диаметра в мм.
Облачность - указаны через наклонную черту общая и нижняя облачность в баллах и высота нижней границы облаков в метрах; квадратными скобками обозначены формы облаков: Ci - перистые, Cs - перисто-слоистые, Cc - перисто-кучевые, Ac - высококучевые, As - высокослоистые, Sc - слоисто-кучевые, Ns - слоисто-дождевые, Cu - кучевые, Cb - кучево-дождевые. Подробнее классификацию облаков см. в Атласе облаков (PDF).
T - Температура воздуха - температура, измеренная на высоте 2 м над землей.
Td - Температура точки росы - температура, при понижении до которой содержащийся в воздухе водяной пар достигнет насыщения.
f - Относительная влажность воздуха - влажноcть воздуха, измеренная на высоте 2 м над землей.
Te - Эффективная температура - температура, которую ощущает одетый по сезону человек в тени. Характеристика душности погоды. При расчете учитывается влияние влажности воздуха и скорости ветра на теплоощущения человека.
Tes - Эффективная температура на солнце - температура, которую ощущает человек, с поправкой на солнечный нагрев. Характеристика знойности погоды. Зависит от высоты солнца над горизонтом, облачности и скорости ветра. Ночью, в пасмурную погоду, а также при ветре 12 м/с и более поправка равна нулю.
P - Атмосферное давление - приведенное к уровню моря атмосферное давление.
Po - Атмосферное давление - измеренное на уровне метеостанции атмосферное давление.
Tmin - Минимальная температура - минимум температуры воздуха на высоте 2 м над землей.
Tmax - Максимальная температура - максимум температуры воздуха на высоте 2 м над землей.
R - Количество осадков - Количество выпавших осадков за период времени, мм. При наведении курсора мыши на число - период времени, за который выпало указанное количество осадков.
R24 - Количество осадков - Количество выпавших осадков за 24 часа, мм.
S - Снежный покров - Высота снежного покрова, см. При наведении курсора мыши на число - состояние снежного покрова и степень покрытия местности в баллах.